Time,TemperatureF,DewpointF,PressureIn,WindDirection,WindDirectionDegrees,WindSpeedMPH,WindSpeedGustMPH,Humidity,HourlyPrecipIn,Conditions,Clouds,dailyrainin,SoftwareType,DateUTC
2013-11-30 00:01:00,62.8,39.9,29.77,ENE,66,4.0,5.8,43,0.00,,,0.00,meteobridge,2013-11-30 08:01:00,
2013-11-30 00:03:00,63.0,39.6,29.77,East,88,3.1,5.8,42,0.00,,,0.00,meteobridge,2013-11-30 08:03:00,
2013-11-30 00:05:00,63.0,38.3,29.77,NE,47,2.7,3.6,40,0.00,,,0.00,meteobridge,2013-11-30 08:05:00,
2013-11-30 00:09:00,63.0,36.3,29.77,NE,45,4.0,5.8,37,0.00,,,0.00,meteobridge,2013-11-30 08:09:00,
2013-11-30 00:12:00,63.1,36.5,29.77,East,84,0.0,4.9,37,0.00,,,0.00,meteobridge,2013-11-30 08:12:00,
2013-11-30 00:14:00,63.1,36.5,29.77,East,83,0.0,0.0,37,0.00,,,0.00,meteobridge,2013-11-30 08:14:00,
2013-11-30 00:20:00,63.5,40.6,29.77,SSW,212,0.0,0.0,43,0.00,,,0.00,meteobridge,2013-11-30 08:20:00,
2013-11-30 00:22:00,63.1,40.3,29.77,SSW,212,0.0,0.0,43,0.00,,,0.00,meteobridge,2013-11-30 08:22:00,
2013-11-30 00:24:00,63.1,40.8,29.77,SSW,212,0.0,0.0,44,0.00,,,0.00,meteobridge,2013-11-30 08:24:00,
2013-11-30 00:30:00,63.0,41.9,29.77,WSW,253,0.0,0.0,46,0.00,,,0.00,meteobridge,2013-11-30 08:30:00,
2013-11-30 00:32:00,63.0,41.9,29.77,WSW,253,0.0,0.0,46,0.00,,,0.00,meteobridge,2013-11-30 08:32:00,
2013-11-30 00:37:00,62.6,41.5,29.77,WSW,253,0.0,0.0,46,0.00,,,0.00,meteobridge,2013-11-30 08:37:00,
2013-11-30 00:43:00,62.2,41.7,29.77,WSW,253,0.0,0.0,47,0.00,,,0.00,meteobridge,2013-11-30 08:43:00,
2013-11-30 00:47:00,62.1,42.1,29.77,WSW,253,0.0,0.0,48,0.00,,,0.00,meteobridge,2013-11-30 08:47:00,
2013-11-30 00:49:00,61.9,41.9,29.77,WSW,253,0.0,0.0,48,0.00,,,0.00,meteobridge,2013-11-30 08:49:00,
2013-11-30 00:53:00,61.9,41.9,29.77,WSW,253,0.0,0.0,48,0.00,,,0.00,meteobridge,2013-11-30 08:53:00,
2013-11-30 00:55:00,61.9,41.9,29.77,WSW,253,0.0,0.0,48,0.00,,,0.00,meteobridge,2013-11-30 08:55:00,
2013-11-30 00:57:00,61.9,42.4,29.77,WSW,253,0.0,0.0,49,0.00,,,0.00,meteobridge,2013-11-30 08:57:00,
2013-11-30 00:59:00,61.9,42.4,29.77,WSW,253,0.0,0.0,49,0.00,,,0.00,meteobridge,2013-11-30 08:59:00,
2013-11-30 01:02:00,61.9,42.4,29.77,WSW,253,0.0,0.0,49,0.00,,,0.00,meteobridge,2013-11-30 09:02:00,
2013-11-30 01:04:00,61.9,42.4,29.77,WSW,253,0.0,0.0,49,0.00,,,0.00,meteobridge,2013-11-30 09:04:00,
2013-11-30 01:06:00,61.9,42.4,29.77,WSW,253,0.0,0.0,49,0.00,,,0.00,meteobridge,2013-11-30 09:06:00,
2013-11-30 01:08:00,61.9,42.4,29.77,WSW,253,0.0,0.0,49,0.00,,,0.00,meteobridge,2013-11-30 09:08:00,
2013-11-30 01:10:00,61.9,42.4,29.77,WSW,253,0.0,0.0,49,0.00,,,0.00,meteobridge,2013-11-30 09:10:00,
2013-11-30 01:16:00,61.9,43.0,29.77,WSW,253,0.0,0.0,50,0.00,,,0.00,meteobridge,2013-11-30 09:16:00,
2013-11-30 01:18:00,61.9,43.0,29.77,WSW,253,0.0,0.0,50,0.00,,,0.00,meteobridge,2013-11-30 09:18:00,
2013-11-30 01:20:00,62.1,43.2,29.77,WSW,253,0.0,0.0,50,0.00,,,0.00,meteobridge,2013-11-30 09:20:00,
2013-11-30 01:22:00,62.1,43.2,29.77,WSW,253,0.0,0.0,50,0.00,,,0.00,meteobridge,2013-11-30 09:22:00,
2013-11-30 01:24:00,62.1,43.2,29.77,WSW,253,0.0,0.0,50,0.00,,,0.00,meteobridge,2013-11-30 09:24:00,
2013-11-30 01:29:00,62.4,44.1,29.77,WSW,253,0.0,0.0,51,0.00,,,0.00,meteobridge,2013-11-30 09:29:00,
2013-11-30 01:31:00,62.6,44.2,29.77,ESE,106,0.0,0.0,51,0.00,,,0.00,meteobridge,2013-11-30 09:31:00,
2013-11-30 01:33:00,63.0,45.1,29.77,ESE,107,0.0,0.0,52,0.00,,,0.00,meteobridge,2013-11-30 09:33:00,
2013-11-30 01:37:00,63.0,45.1,29.77,ESE,107,0.0,0.0,52,0.00,,,0.00,meteobridge,2013-11-30 09:37:00,
2013-11-30 01:39:00,62.8,45.0,29.77,ESE,107,0.0,0.0,52,0.00,,,0.00,meteobridge,2013-11-30 09:39:00,
2013-11-30 01:41:00,62.6,44.8,29.77,ESE,107,0.0,0.0,52,0.00,,,0.00,meteobridge,2013-11-30 09:41:00,
2013-11-30 01:43:00,62.2,44.4,29.77,ESE,107,0.0,0.0,52,0.00,,,0.00,meteobridge,2013-11-30 09:43:00,
2013-11-30 01:45:00,62.1,44.2,29.77,ESE,107,0.0,0.0,52,0.00,,,0.00,meteobridge,2013-11-30 09:45:00,
2013-11-30 01:47:00,61.9,44.1,29.77,East,91,0.0,0.0,52,0.00,,,0.00,meteobridge,2013-11-30 09:47:00,
2013-11-30 01:50:00,61.9,44.1,29.77,East,91,0.0,0.0,52,0.00,,,0.00,meteobridge,2013-11-30 09:50:00,
2013-11-30 01:52:00,61.7,43.9,29.77,East,91,0.0,0.0,52,0.00,,,0.00,meteobridge,2013-11-30 09:52:00,
2013-11-30 01:56:00,61.3,43.5,29.77,ENE,70,0.0,0.0,52,0.00,,,0.00,meteobridge,2013-11-30 09:56:00,
2013-11-30 01:58:00,61.2,43.3,29.77,ENE,70,0.0,0.0,52,0.00,,,0.00,meteobridge,2013-11-30 09:58:00,
2013-11-30 02:00:00,61.0,43.2,29.77,ENE,70,0.0,0.0,52,0.00,,,0.00,meteobridge,2013-11-30 10:00:00,
2013-11-30 02:02:00,60.6,43.0,29.77,ENE,70,0.0,0.0,52,0.00,,,0.00,meteobridge,2013-11-30 10:02:00,
2013-11-30 02:04:00,60.6,43.3,29.77,ENE,70,0.0,0.0,53,0.00,,,0.00,meteobridge,2013-11-30 10:04:00,
2013-11-30 02:06:00,60.4,43.2,29.77,ENE,70,0.0,0.0,53,0.00,,,0.00,meteobridge,2013-11-30 10:06:00,
2013-11-30 02:08:00,60.4,43.7,29.77,ENE,70,0.0,0.0,54,0.00,,,0.00,meteobridge,2013-11-30 10:08:00,
2013-11-30 02:12:00,60.1,43.3,29.77,ENE,70,0.0,0.0,54,0.00,,,0.00,meteobridge,2013-11-30 10:12:00,
2013-11-30 02:15:00,60.1,43.9,29.77,ENE,64,0.0,0.0,55,0.00,,,0.00,meteobridge,2013-11-30 10:15:00,
2013-11-30 02:17:00,60.3,44.1,29.77,ENE,64,0.0,0.0,55,0.00,,,0.00,meteobridge,2013-11-30 10:17:00,
2013-11-30 02:19:00,60.3,44.1,29.77,ENE,64,0.0,0.0,55,0.00,,,0.00,meteobridge,2013-11-30 10:19:00,
2013-11-30 02:21:00,60.3,44.1,29.77,NE,52,0.0,0.0,55,0.00,,,0.00,meteobridge,2013-11-30 10:21:00,
2013-11-30 02:23:00,60.3,44.1,29.77,NE,52,0.0,0.0,55,0.00,,,0.00,meteobridge,2013-11-30 10:23:00,
2013-11-30 02:25:00,60.3,44.1,29.77,NE,52,0.0,0.0,55,0.00,,,0.00,meteobridge,2013-11-30 10:25:00,
2013-11-30 02:29:00,60.6,45.3,29.77,NE,52,0.0,0.0,57,0.00,,,0.00,meteobridge,2013-11-30 10:29:00,
2013-11-30 02:36:00,60.6,46.6,29.77,ENE,72,0.0,0.0,60,0.00,,,0.00,meteobridge,2013-11-30 10:36:00,
2013-11-30 02:38:00,60.4,46.4,29.77,ENE,72,0.0,0.0,60,0.00,,,0.00,meteobridge,2013-11-30 10:38:00,
2013-11-30 02:40:00,60.4,46.4,29.77,ENE,72,0.0,0.0,60,0.00,,,0.00,meteobridge,2013-11-30 10:40:00,
2013-11-30 02:42:00,60.3,46.8,29.77,ENE,72,0.0,0.0,61,0.00,,,0.00,meteobridge,2013-11-30 10:42:00,
2013-11-30 02:48:00,60.4,48.2,29.77,NNE,13,0.0,0.0,64,0.00,,,0.00,meteobridge,2013-11-30 10:48:00,
2013-11-30 02:50:00,60.3,48.0,29.77,NNE,13,0.0,0.0,64,0.00,,,0.00,meteobridge,2013-11-30 10:50:00,
2013-11-30 02:52:00,60.3,48.0,29.77,NNE,13,0.0,0.0,64,0.00,,,0.00,meteobridge,2013-11-30 10:52:00,
2013-11-30 02:54:00,60.1,47.8,29.77,NNE,13,0.0,0.0,64,0.00,,,0.00,meteobridge,2013-11-30 10:54:00,
2013-11-30 02:57:00,60.1,48.2,29.77,NNE,13,0.0,0.0,65,0.00,,,0.00,meteobridge,2013-11-30 10:57:00,
2013-11-30 02:59:00,60.6,51.1,29.77,North,357,0.0,0.0,71,0.00,,,0.00,meteobridge,2013-11-30 10:59:00,
2013-11-30 03:01:00,60.6,52.3,29.77,North,357,0.0,0.0,74,0.00,,,0.00,meteobridge,2013-11-30 11:01:00,
2013-11-30 03:05:00,60.4,52.5,29.77,North,0,0.0,0.0,75,0.00,,,0.00,meteobridge,2013-11-30 11:05:00,
2013-11-30 03:07:00,60.4,52.9,29.77,North,10,0.0,0.0,76,0.00,,,0.00,meteobridge,2013-11-30 11:07:00,
2013-11-30 03:09:00,60.3,52.3,29.77,North,10,0.0,0.0,75,0.00,,,0.00,meteobridge,2013-11-30 11:09:00,
2013-11-30 03:11:00,60.3,52.7,29.77,North,10,0.0,0.0,76,0.00,,,0.00,meteobridge,2013-11-30 11:11:00,
2013-11-30 03:15:00,60.1,52.5,29.77,North,10,0.0,0.0,76,0.00,,,0.00,meteobridge,2013-11-30 11:15:00,
2013-11-30 03:18:00,60.1,52.5,29.77,North,10,0.0,0.0,76,0.00,,,0.00,meteobridge,2013-11-30 11:18:00,
2013-11-30 03:20:00,60.1,52.5,29.77,North,10,0.0,0.0,76,0.00,,,0.00,meteobridge,2013-11-30 11:20:00,
2013-11-30 03:22:00,59.7,52.2,29.77,North,10,0.0,0.0,76,0.00,,,0.00,meteobridge,2013-11-30 11:22:00,
2013-11-30 03:26:00,59.5,51.6,29.77,NNE,23,0.0,0.0,75,0.00,,,0.00,meteobridge,2013-11-30 11:26:00,
2013-11-30 03:28:00,59.4,51.8,29.77,NNE,23,0.0,0.0,76,0.00,,,0.00,meteobridge,2013-11-30 11:28:00,
2013-11-30 03:30:00,59.2,51.3,29.74,NNE,18,0.0,0.0,75,0.00,,,0.00,meteobridge,2013-11-30 11:30:00,
2013-11-30 03:32:00,59.2,51.3,29.74,North,11,0.0,0.0,75,0.00,,,0.00,meteobridge,2013-11-30 11:32:00,
2013-11-30 03:38:00,59.2,52.3,29.74,North,11,0.0,0.0,78,0.00,,,0.00,meteobridge,2013-11-30 11:38:00,
2013-11-30 03:40:00,59.0,52.2,29.74,North,11,0.0,0.0,78,0.00,,,0.00,meteobridge,2013-11-30 11:40:00,
2013-11-30 03:45:00,58.8,52.0,29.74,North,11,0.0,0.0,78,0.00,,,0.00,meteobridge,2013-11-30 11:45:00,
2013-11-30 03:47:00,58.8,52.0,29.74,North,11,0.0,0.0,78,0.00,,,0.00,meteobridge,2013-11-30 11:47:00,
2013-11-30 04:01:00,58.6,51.8,29.74,NE,42,0.0,0.0,78,0.00,,,0.00,meteobridge,2013-11-30 12:01:00,
2013-11-30 04:05:00,58.6,52.2,29.74,NE,45,0.0,0.0,79,0.00,,,0.00,meteobridge,2013-11-30 12:05:00,
2013-11-30 04:07:00,58.5,52.0,29.74,NE,35,0.0,0.0,79,0.00,,,0.00,meteobridge,2013-11-30 12:07:00,
2013-11-30 04:13:00,58.5,52.3,29.74,NE,35,0.0,0.0,80,0.00,,,0.00,meteobridge,2013-11-30 12:13:00,
2013-11-30 04:15:00,58.5,52.3,29.74,NE,35,0.0,0.0,80,0.00,,,0.00,meteobridge,2013-11-30 12:15:00,
2013-11-30 04:17:00,58.3,52.2,29.74,NE,35,0.0,0.0,80,0.00,,,0.00,meteobridge,2013-11-30 12:17:00,
2013-11-30 04:19:00,58.3,52.2,29.74,NE,42,0.0,0.0,80,0.00,,,0.00,meteobridge,2013-11-30 12:19:00,
2013-11-30 04:24:00,58.3,52.2,29.74,NE,42,0.0,0.0,80,0.00,,,0.00,meteobridge,2013-11-30 12:24:00,
2013-11-30 04:26:00,58.1,52.0,29.74,NE,42,0.0,0.0,80,0.00,,,0.00,meteobridge,2013-11-30 12:26:00,
2013-11-30 04:30:00,58.3,52.2,29.74,ENE,57,0.0,0.0,80,0.00,,,0.00,meteobridge,2013-11-30 12:30:00,
2013-11-30 04:32:00,58.5,52.3,29.74,ENE,57,0.0,0.0,80,0.00,,,0.00,meteobridge,2013-11-30 12:32:00,
2013-11-30 04:34:00,58.5,52.7,29.74,ENE,57,0.0,0.0,81,0.00,,,0.00,meteobridge,2013-11-30 12:34:00,
2013-11-30 04:39:00,58.5,52.7,29.74,ENE,57,0.0,0.0,81,0.00,,,0.00,meteobridge,2013-11-30 12:39:00,
2013-11-30 04:41:00,58.5,52.7,29.74,ENE,57,0.0,0.0,81,0.00,,,0.00,meteobridge,2013-11-30 12:41:00,
2013-11-30 04:43:00,58.3,52.5,29.74,ENE,57,0.0,0.0,81,0.00,,,0.00,meteobridge,2013-11-30 12:43:00,
2013-11-30 04:45:00,58.3,52.5,29.77,ENE,57,0.0,0.0,81,0.00,,,0.00,meteobridge,2013-11-30 12:45:00,
2013-11-30 04:47:00,58.3,52.5,29.77,ENE,57,0.0,0.0,81,0.00,,,0.00,meteobridge,2013-11-30 12:47:00,
2013-11-30 04:49:00,58.5,52.7,29.77,ENE,57,0.0,0.0,81,0.00,,,0.00,meteobridge,2013-11-30 12:49:00,
2013-11-30 04:53:00,58.6,52.9,29.77,ENE,57,0.0,0.0,81,0.00,,,0.00,meteobridge,2013-11-30 12:53:00,
2013-11-30 04:55:00,58.6,52.9,29.77,ENE,57,0.0,0.0,81,0.00,,,0.00,meteobridge,2013-11-30 12:55:00,
2013-11-30 04:59:00,58.6,52.9,29.77,ENE,57,0.0,0.0,81,0.00,,,0.00,meteobridge,2013-11-30 12:59:00,
2013-11-30 05:04:00,58.6,52.9,29.77,ENE,57,0.0,0.0,81,0.00,,,0.00,meteobridge,2013-11-30 13:04:00,
2013-11-30 05:06:00,58.6,52.9,29.77,ENE,57,0.0,0.0,81,0.00,,,0.00,meteobridge,2013-11-30 13:06:00,
2013-11-30 05:08:00,58.6,52.9,29.77,ENE,57,0.0,0.0,81,0.00,,,0.00,meteobridge,2013-11-30 13:08:00,
2013-11-30 05:10:00,58.6,53.2,29.77,NNE,17,0.0,0.0,82,0.00,,,0.00,meteobridge,2013-11-30 13:10:00,
2013-11-30 05:14:00,58.8,53.4,29.77,North,4,0.0,0.0,82,0.00,,,0.00,meteobridge,2013-11-30 13:14:00,
2013-11-30 05:16:00,59.0,53.8,29.77,North,1,0.0,0.0,83,0.00,,,0.00,meteobridge,2013-11-30 13:16:00,
2013-11-30 05:20:00,59.4,54.5,29.77,North,357,0.0,0.0,84,0.00,,,0.00,meteobridge,2013-11-30 13:20:00,
2013-11-30 05:22:00,59.4,54.1,29.77,North,357,0.0,0.0,83,0.00,,,0.00,meteobridge,2013-11-30 13:22:00,
2013-11-30 05:24:00,59.4,54.1,29.77,North,357,0.0,0.0,83,0.00,,,0.00,meteobridge,2013-11-30 13:24:00,
2013-11-30 05:31:00,59.5,53.8,29.77,North,357,0.0,0.0,81,0.00,,,0.00,meteobridge,2013-11-30 13:31:00,
2013-11-30 05:33:00,59.5,53.8,29.77,North,357,0.0,0.0,81,0.00,,,0.00,meteobridge,2013-11-30 13:33:00,
2013-11-30 05:37:00,59.9,54.1,29.77,North,357,0.0,0.0,81,0.00,,,0.00,meteobridge,2013-11-30 13:37:00,
2013-11-30 05:39:00,60.1,54.0,29.77,North,357,0.0,0.0,80,0.00,,,0.00,meteobridge,2013-11-30 13:39:00,
2013-11-30 05:43:00,60.4,54.0,29.77,North,357,0.0,0.0,79,0.00,,,0.00,meteobridge,2013-11-30 13:43:00,
2013-11-30 05:45:00,60.6,54.1,29.77,North,357,0.0,0.0,79,0.00,,,0.00,meteobridge,2013-11-30 13:45:00,
2013-11-30 05:47:00,60.6,53.8,29.77,North,357,0.0,0.0,78,0.00,,,0.00,meteobridge,2013-11-30 13:47:00,
2013-11-30 05:49:00,60.8,54.0,29.77,North,357,0.0,0.0,78,0.00,,,0.00,meteobridge,2013-11-30 13:49:00,
2013-11-30 05:54:00,60.8,53.6,29.77,SW,224,0.0,0.0,77,0.00,,,0.00,meteobridge,2013-11-30 13:54:00,
2013-11-30 06:00:00,60.8,53.2,29.77,SW,224,0.0,0.0,76,0.00,,,0.00,meteobridge,2013-11-30 14:00:00,
2013-11-30 06:02:00,60.8,52.9,29.77,SW,224,0.0,0.0,75,0.00,,,0.00,meteobridge,2013-11-30 14:02:00,
2013-11-30 06:04:00,61.0,53.1,29.77,SW,224,0.0,0.0,75,0.00,,,0.00,meteobridge,2013-11-30 14:04:00,
2013-11-30 06:10:00,61.5,53.6,29.77,SW,224,0.0,0.0,75,0.00,,,0.00,meteobridge,2013-11-30 14:10:00,
2013-11-30 06:15:00,61.5,54.0,29.77,SW,224,0.0,0.0,76,0.00,,,0.00,meteobridge,2013-11-30 14:15:00,
2013-11-30 06:17:00,61.5,54.0,29.77,SW,224,0.0,0.0,76,0.00,,,0.00,meteobridge,2013-11-30 14:17:00,
2013-11-30 06:19:00,61.3,53.4,29.77,SW,224,0.0,0.0,75,0.00,,,0.00,meteobridge,2013-11-30 14:19:00,
2013-11-30 06:23:00,61.7,52.9,29.77,SW,224,0.0,0.0,73,0.00,,,0.00,meteobridge,2013-11-30 14:23:00,
2013-11-30 06:25:00,61.5,52.7,29.77,SW,224,0.0,0.0,73,0.00,,,0.00,meteobridge,2013-11-30 14:25:00,
2013-11-30 06:27:00,61.5,52.3,29.77,SW,224,0.0,0.0,72,0.00,,,0.00,meteobridge,2013-11-30 14:27:00,
2013-11-30 06:29:00,61.5,52.3,29.77,SW,224,0.0,0.0,72,0.00,,,0.00,meteobridge,2013-11-30 14:29:00,
2013-11-30 06:31:00,61.5,52.0,29.77,SW,224,0.0,0.0,71,0.00,,,0.00,meteobridge,2013-11-30 14:31:00,
2013-11-30 06:34:00,61.3,51.1,29.77,SW,224,0.0,0.0,69,0.00,,,0.00,meteobridge,2013-11-30 14:34:00,
2013-11-30 06:38:00,61.5,51.6,29.77,SW,224,0.0,0.0,70,0.00,,,0.00,meteobridge,2013-11-30 14:38:00,
2013-11-30 06:44:00,61.5,51.3,29.77,SW,224,0.0,0.0,69,0.00,,,0.00,meteobridge,2013-11-30 14:44:00,
2013-11-30 06:46:00,61.5,50.9,29.77,NNE,19,0.0,0.0,68,0.00,,,0.00,meteobridge,2013-11-30 14:46:00,
2013-11-30 06:48:00,61.5,50.5,29.77,North,1,0.0,0.0,67,0.00,,,0.00,meteobridge,2013-11-30 14:48:00,
2013-11-30 06:52:00,61.7,51.1,29.77,North,1,0.0,0.0,68,0.00,,,0.00,meteobridge,2013-11-30 14:52:00,
2013-11-30 06:55:00,61.5,49.6,29.77,North,1,0.0,0.0,65,0.00,,,0.00,meteobridge,2013-11-30 14:55:00,
2013-11-30 06:57:00,61.7,49.8,29.77,ENE,64,0.0,0.0,65,0.00,,,0.00,meteobridge,2013-11-30 14:57:00,
2013-11-30 06:59:00,61.7,50.2,29.77,East,86,0.0,0.0,66,0.00,,,0.00,meteobridge,2013-11-30 14:59:00,
2013-11-30 07:01:00,61.9,50.7,29.77,East,86,0.0,0.0,67,0.00,,,0.00,meteobridge,2013-11-30 15:01:00,
2013-11-30 07:03:00,61.9,50.7,29.77,East,86,0.0,0.0,67,0.00,,,0.00,meteobridge,2013-11-30 15:03:00,
2013-11-30 07:05:00,62.1,50.9,29.77,East,86,0.0,0.0,67,0.00,,,0.00,meteobridge,2013-11-30 15:05:00,
2013-11-30 07:07:00,62.2,51.1,29.77,East,86,0.0,0.0,67,0.00,,,0.00,meteobridge,2013-11-30 15:07:00,
2013-11-30 07:09:00,62.4,51.8,29.77,SW,223,0.0,0.0,68,0.00,,,0.00,meteobridge,2013-11-30 15:09:00,
2013-11-30 07:11:00,62.4,51.3,29.77,SW,223,0.0,0.0,67,0.00,,,0.00,meteobridge,2013-11-30 15:11:00,
2013-11-30 07:15:00,62.6,51.1,29.77,SW,223,0.0,0.0,66,0.00,,,0.00,meteobridge,2013-11-30 15:15:00,
2013-11-30 07:17:00,62.8,51.3,29.77,SW,223,0.0,0.0,66,0.00,,,0.00,meteobridge,2013-11-30 15:17:00,
2013-11-30 07:20:00,63.0,51.4,29.77,SW,223,0.0,0.0,66,0.00,,,0.00,meteobridge,2013-11-30 15:20:00,
2013-11-30 07:22:00,63.1,51.6,29.77,SW,223,0.0,0.0,66,0.00,,,0.00,meteobridge,2013-11-30 15:22:00,
2013-11-30 07:24:00,63.3,51.8,29.77,SW,223,0.0,0.0,66,0.00,,,0.00,meteobridge,2013-11-30 15:24:00,
2013-11-30 07:26:00,63.7,52.2,29.77,SW,223,0.0,0.0,66,0.00,,,0.00,meteobridge,2013-11-30 15:26:00,
2013-11-30 07:28:00,63.9,52.3,29.77,SW,223,0.0,0.0,66,0.00,,,0.00,meteobridge,2013-11-30 15:28:00,
2013-11-30 07:32:00,64.4,52.9,29.77,SW,223,0.0,0.0,66,0.00,,,0.00,meteobridge,2013-11-30 15:32:00,
2013-11-30 07:34:00,64.6,51.3,29.77,WNW,287,0.0,0.0,62,0.00,,,0.00,meteobridge,2013-11-30 15:34:00,
2013-11-30 07:36:00,64.9,51.1,29.77,WNW,287,0.0,0.0,61,0.00,,,0.00,meteobridge,2013-11-30 15:36:00,
2013-11-30 07:38:00,65.5,51.6,29.77,WNW,287,0.0,0.0,61,0.00,,,0.00,meteobridge,2013-11-30 15:38:00,
2013-11-30 07:40:00,64.9,48.4,29.77,WNW,287,0.0,0.0,55,0.00,,,0.00,meteobridge,2013-11-30 15:40:00,
2013-11-30 07:43:00,65.3,47.3,29.77,WNW,287,0.0,0.0,52,0.00,,,0.00,meteobridge,2013-11-30 15:43:00,
2013-11-30 07:47:00,65.5,43.0,29.77,South,169,3.1,4.0,44,0.00,,,0.00,meteobridge,2013-11-30 15:47:00,
2013-11-30 07:49:00,65.5,42.4,29.77,South,169,0.0,3.1,43,0.00,,,0.00,meteobridge,2013-11-30 15:49:00,
2013-11-30 07:51:00,65.5,42.4,29.77,South,169,0.0,0.0,43,0.00,,,0.00,meteobridge,2013-11-30 15:51:00,
2013-11-30 07:53:00,65.7,42.6,29.77,South,169,0.0,0.0,43,0.00,,,0.00,meteobridge,2013-11-30 15:53:00,
2013-11-30 07:55:00,65.7,43.2,29.77,South,169,0.0,0.0,44,0.00,,,0.00,meteobridge,2013-11-30 15:55:00,
2013-11-30 07:59:00,65.7,43.2,29.77,South,169,0.0,0.0,44,0.00,,,0.00,meteobridge,2013-11-30 15:59:00,
2013-11-30 08:01:00,65.7,42.6,29.77,South,169,0.0,0.0,43,0.00,,,0.00,meteobridge,2013-11-30 16:01:00,
2013-11-30 08:03:00,65.8,42.8,29.77,SW,224,0.0,0.0,43,0.00,,,0.00,meteobridge,2013-11-30 16:03:00,
2013-11-30 08:06:00,66.0,43.5,29.77,WSW,242,2.7,3.6,44,0.00,,,0.00,meteobridge,2013-11-30 16:06:00,
2013-11-30 08:08:00,65.8,43.3,29.77,WSW,240,0.0,3.6,44,0.00,,,0.00,meteobridge,2013-11-30 16:08:00,
2013-11-30 08:10:00,65.7,43.7,29.77,WSW,240,0.0,0.0,45,0.00,,,0.00,meteobridge,2013-11-30 16:10:00,
2013-11-30 08:14:00,65.3,43.3,29.77,WSW,240,0.0,0.0,45,0.00,,,0.00,meteobridge,2013-11-30 16:14:00,
2013-11-30 08:20:00,65.3,44.1,29.77,WSW,240,0.0,0.0,46,0.00,,,0.00,meteobridge,2013-11-30 16:20:00,
2013-11-30 08:22:00,65.1,44.4,29.77,SW,216,3.1,3.1,47,0.00,,,0.00,meteobridge,2013-11-30 16:22:00,
2013-11-30 08:24:00,64.9,44.2,29.77,SW,216,0.0,3.1,47,0.00,,,0.00,meteobridge,2013-11-30 16:24:00,
2013-11-30 08:27:00,65.1,44.4,29.77,SW,216,0.0,0.0,47,0.00,,,0.00,meteobridge,2013-11-30 16:27:00,
2013-11-30 08:31:00,65.5,44.8,29.77,SW,216,0.0,0.0,47,0.00,,,0.00,meteobridge,2013-11-30 16:31:00,
2013-11-30 08:33:00,65.8,45.0,29.77,SW,216,0.0,0.0,47,0.00,,,0.00,meteobridge,2013-11-30 16:33:00,
2013-11-30 08:37:00,66.7,46.4,29.77,SW,216,0.0,0.0,48,0.00,,,0.00,meteobridge,2013-11-30 16:37:00,
2013-11-30 08:39:00,67.3,46.9,29.77,SW,216,0.0,0.0,48,0.00,,,0.00,meteobridge,2013-11-30 16:39:00,
2013-11-30 08:41:00,67.8,47.5,29.77,SW,216,0.0,0.0,48,0.00,,,0.00,meteobridge,2013-11-30 16:41:00,
2013-11-30 08:43:00,67.6,44.4,29.77,SW,216,0.0,0.0,43,0.00,,,0.00,meteobridge,2013-11-30 16:43:00,
2013-11-30 08:45:00,67.6,43.7,29.77,SW,216,0.0,0.0,42,0.00,,,0.00,meteobridge,2013-11-30 16:45:00,
2013-11-30 08:52:00,68.5,44.6,29.77,SW,216,0.0,0.0,42,0.00,,,0.00,meteobridge,2013-11-30 16:52:00,
2013-11-30 08:54:00,68.5,42.6,29.77,SW,216,0.0,0.0,39,0.00,,,0.00,meteobridge,2013-11-30 16:54:00,
2013-11-30 08:56:00,68.4,42.4,29.77,SW,216,0.0,0.0,39,0.00,,,0.00,meteobridge,2013-11-30 16:56:00,
2013-11-30 08:58:00,68.2,42.3,29.77,SW,225,2.7,3.6,39,0.00,,,0.00,meteobridge,2013-11-30 16:58:00,
2013-11-30 09:00:00,68.4,43.2,29.77,SW,216,0.0,2.2,40,0.00,,,0.00,meteobridge,2013-11-30 17:00:00,
2013-11-30 09:02:00,68.9,43.5,29.77,SW,216,0.0,0.0,40,0.00,,,0.00,meteobridge,2013-11-30 17:02:00,
2013-11-30 09:06:00,69.6,44.2,29.77,SW,216,0.0,0.0,40,0.00,,,0.00,meteobridge,2013-11-30 17:06:00,
2013-11-30 09:13:00,69.3,41.9,29.77,West,267,3.1,4.9,37,0.00,,,0.00,meteobridge,2013-11-30 17:13:00,
2013-11-30 09:15:00,71.8,42.6,29.77,West,267,0.0,0.0,35,0.00,,,0.00,meteobridge,2013-11-30 17:15:00,
2013-11-30 09:19:00,76.8,45.5,29.77,West,267,0.0,0.0,33,0.00,,,0.00,meteobridge,2013-11-30 17:19:00,
2013-11-30 09:21:00,75.0,42.3,29.77,SSW,205,5.4,5.4,31,0.00,,,0.00,meteobridge,2013-11-30 17:21:00,
2013-11-30 09:23:00,73.0,40.6,29.77,SW,233,4.0,5.4,31,0.00,,,0.00,meteobridge,2013-11-30 17:23:00,
2013-11-30 09:27:00,79.2,41.4,29.77,West,273,2.7,2.7,26,0.00,,,0.00,meteobridge,2013-11-30 17:27:00,
2013-11-30 09:29:00,80.1,38.8,29.77,SW,225,2.7,4.9,23,0.00,,,0.00,meteobridge,2013-11-30 17:29:00,
2013-11-30 09:32:00,79.3,37.2,29.77,SW,214,4.9,5.8,22,0.00,,,0.00,meteobridge,2013-11-30 17:32:00,
2013-11-30 09:34:00,77.7,35.8,29.77,WSW,257,2.7,4.0,22,0.00,,,0.00,meteobridge,2013-11-30 17:34:00,
2013-11-30 09:36:00,79.9,36.5,29.77,WSW,245,4.0,4.9,21,0.00,,,0.00,meteobridge,2013-11-30 17:36:00,
2013-11-30 09:40:00,83.5,38.1,29.77,West,277,4.0,4.0,20,0.00,,,0.00,meteobridge,2013-11-30 17:40:00,
2013-11-30 09:42:00,84.6,39.0,29.77,NW,325,3.1,4.0,20,0.00,,,0.00,meteobridge,2013-11-30 17:42:00,
2013-11-30 09:44:00,85.5,39.7,29.77,WNW,295,4.0,4.0,20,0.00,,,0.00,meteobridge,2013-11-30 17:44:00,
2013-11-30 09:46:00,83.5,38.1,29.77,WNW,285,2.7,4.9,20,0.00,,,0.00,meteobridge,2013-11-30 17:46:00,
2013-11-30 09:48:00,85.8,40.1,29.77,SW,232,4.0,4.0,20,0.00,,,0.00,meteobridge,2013-11-30 17:48:00,
2013-11-30 09:50:00,84.7,39.2,29.77,WNW,284,3.1,4.9,20,0.00,,,0.00,meteobridge,2013-11-30 17:50:00,
2013-11-30 09:53:00,87.4,40.1,29.77,NW,326,5.4,5.4,19,0.00,,,0.00,meteobridge,2013-11-30 17:53:00,
2013-11-30 09:55:00,86.9,39.7,29.77,WNW,285,4.0,5.4,19,0.00,,,0.00,meteobridge,2013-11-30 17:55:00,
2013-11-30 09:57:00,82.6,37.4,29.77,West,260,4.0,5.8,20,0.00,,,0.00,meteobridge,2013-11-30 17:57:00,
2013-11-30 09:59:00,81.3,37.6,29.77,SW,224,3.1,4.0,21,0.00,,,0.00,meteobridge,2013-11-30 17:59:00,
2013-11-30 10:01:00,77.7,37.0,29.77,West,262,4.9,5.4,23,0.00,,,0.00,meteobridge,2013-11-30 18:01:00,
2013-11-30 10:03:00,76.5,37.0,29.77,WNW,284,4.0,4.0,24,0.00,,,0.00,meteobridge,2013-11-30 18:03:00,
2013-11-30 10:05:00,74.7,37.6,29.77,WNW,293,3.6,4.0,26,0.00,,,0.00,meteobridge,2013-11-30 18:05:00,
2013-11-30 10:07:00,73.0,40.6,29.77,WSW,256,3.1,4.9,31,0.00,,,0.00,meteobridge,2013-11-30 18:07:00,
2013-11-30 10:11:00,72.9,41.4,29.77,WSW,240,0.0,2.2,32,0.00,,,0.00,meteobridge,2013-11-30 18:11:00,
2013-11-30 10:14:00,72.7,40.3,29.77,West,279,0.0,3.6,31,0.00,,,0.00,meteobridge,2013-11-30 18:14:00,
2013-11-30 10:16:00,72.3,40.8,29.77,SW,225,2.7,3.6,32,0.00,,,0.00,meteobridge,2013-11-30 18:16:00,
2013-11-30 10:20:00,71.1,41.4,29.77,SW,235,3.6,4.9,34,0.00,,,0.00,meteobridge,2013-11-30 18:20:00,
2013-11-30 10:24:00,70.7,43.9,29.77,South,185,4.0,4.0,38,0.00,,,0.00,meteobridge,2013-11-30 18:24:00,
2013-11-30 10:26:00,70.7,43.2,29.77,South,190,3.1,4.0,37,0.00,,,0.00,meteobridge,2013-11-30 18:26:00,
2013-11-30 10:28:00,70.5,43.7,29.77,South,182,3.6,4.5,38,0.00,,,0.00,meteobridge,2013-11-30 18:28:00,
2013-11-30 10:30:00,70.3,41.4,29.77,SW,214,4.0,4.9,35,0.00,,,0.00,meteobridge,2013-11-30 18:30:00,
2013-11-30 10:32:00,71.1,44.2,29.77,WSW,238,2.7,4.0,38,0.00,,,0.00,meteobridge,2013-11-30 18:32:00,
2013-11-30 10:34:00,72.5,44.8,29.77,SSW,194,4.0,4.0,37,0.00,,,0.00,meteobridge,2013-11-30 18:34:00,
2013-11-30 10:36:00,74.7,45.9,29.77,West,264,2.7,4.0,36,0.00,,,0.00,meteobridge,2013-11-30 18:36:00,
2013-11-30 10:41:00,77.5,41.9,29.77,SW,231,4.9,4.9,28,0.00,,,0.00,meteobridge,2013-11-30 18:41:00,
2013-11-30 10:43:00,80.8,44.6,29.77,West,270,0.0,3.1,28,0.00,,,0.00,meteobridge,2013-11-30 18:43:00,
2013-11-30 10:45:00,76.1,41.5,29.77,SW,225,3.6,4.0,29,0.00,,,0.00,meteobridge,2013-11-30 18:45:00,
2013-11-30 10:47:00,77.0,41.4,29.77,NW,310,3.1,4.0,28,0.00,,,0.00,meteobridge,2013-11-30 18:47:00,
2013-11-30 10:49:00,76.8,38.3,29.77,WNW,294,3.6,3.6,25,0.00,,,0.00,meteobridge,2013-11-30 18:49:00,
2013-11-30 10:51:00,76.8,38.3,29.77,WNW,294,0.0,3.1,25,0.00,,,0.00,meteobridge,2013-11-30 18:51:00,
2013-11-30 10:53:00,77.4,40.8,29.77,WNW,294,0.0,0.0,27,0.00,,,0.00,meteobridge,2013-11-30 18:53:00,
2013-11-30 10:55:00,78.4,39.7,29.77,West,270,0.0,0.0,25,0.00,,,0.00,meteobridge,2013-11-30 18:55:00,
2013-11-30 11:00:00,78.6,39.9,29.77,SW,235,0.0,3.6,25,0.00,,,0.00,meteobridge,2013-11-30 19:00:00,
2013-11-30 11:02:00,77.7,40.1,29.77,SW,227,3.1,4.5,26,0.00,,,0.00,meteobridge,2013-11-30 19:02:00,
2013-11-30 11:04:00,77.2,40.6,29.77,SW,220,2.2,5.4,27,0.00,,,0.00,meteobridge,2013-11-30 19:04:00,
2013-11-30 11:06:00,76.8,40.3,29.77,SSE,159,3.6,4.0,27,0.00,,,0.00,meteobridge,2013-11-30 19:06:00,
2013-11-30 11:08:00,78.6,41.9,29.77,SW,229,2.7,4.0,27,0.00,,,0.00,meteobridge,2013-11-30 19:08:00,
2013-11-30 11:12:00,81.9,41.5,29.77,SW,227,0.0,4.0,24,0.00,,,0.00,meteobridge,2013-11-30 19:12:00,
2013-11-30 11:16:00,85.6,42.4,29.74,SW,227,3.1,4.9,22,0.00,,,0.00,meteobridge,2013-11-30 19:16:00,
2013-11-30 11:21:00,83.3,39.4,29.74,SSW,210,3.1,4.0,21,0.00,,,0.00,meteobridge,2013-11-30 19:21:00,
2013-11-30 11:23:00,83.7,39.6,29.74,South,191,0.0,2.2,21,0.00,,,0.00,meteobridge,2013-11-30 19:23:00,
2013-11-30 11:25:00,85.8,40.1,29.74,South,176,0.0,0.0,20,0.00,,,0.00,meteobridge,2013-11-30 19:25:00,
2013-11-30 11:27:00,83.5,39.4,29.74,South,182,5.8,5.8,21,0.00,,,0.00,meteobridge,2013-11-30 19:27:00,
2013-11-30 11:29:00,80.8,37.2,29.74,WSW,243,2.7,4.5,21,0.00,,,0.00,meteobridge,2013-11-30 19:29:00,
2013-11-30 11:31:00,83.8,39.7,29.74,SSW,197,3.1,4.9,21,0.00,,,0.00,meteobridge,2013-11-30 19:31:00,
2013-11-30 11:33:00,84.2,38.8,29.74,WSW,244,2.7,4.0,20,0.00,,,0.00,meteobridge,2013-11-30 19:33:00,
2013-11-30 11:37:00,87.1,39.7,29.74,SSW,199,4.0,4.0,19,0.00,,,0.00,meteobridge,2013-11-30 19:37:00,
2013-11-30 11:39:00,83.3,38.1,29.74,WSW,244,2.7,4.0,20,0.00,,,0.00,meteobridge,2013-11-30 19:39:00,
2013-11-30 11:41:00,84.6,39.0,29.74,SSE,166,4.0,4.0,20,0.00,,,0.00,meteobridge,2013-11-30 19:41:00,
2013-11-30 11:45:00,82.0,38.3,29.74,SSW,204,5.4,5.4,21,0.00,,,0.00,meteobridge,2013-11-30 19:45:00,
2013-11-30 11:47:00,81.1,37.6,29.74,SW,222,4.9,4.9,21,0.00,,,0.00,meteobridge,2013-11-30 19:47:00,
2013-11-30 11:49:00,82.9,39.0,29.74,WNW,298,3.1,5.8,21,0.00,,,0.00,meteobridge,2013-11-30 19:49:00,
2013-11-30 11:52:00,82.6,38.7,29.74,SW,232,2.2,4.9,21,0.00,,,0.00,meteobridge,2013-11-30 19:52:00,
2013-11-30 11:54:00,84.7,39.2,29.74,NW,305,5.4,5.4,20,0.00,,,0.00,meteobridge,2013-11-30 19:54:00,
2013-11-30 11:56:00,82.2,38.5,29.74,SW,230,4.0,5.4,21,0.00,,,0.00,meteobridge,2013-11-30 19:56:00,
2013-11-30 11:58:00,83.5,39.4,29.74,South,190,4.9,5.4,21,0.00,,,0.00,meteobridge,2013-11-30 19:58:00,
2013-11-30 12:00:00,85.1,39.6,29.74,WSW,246,2.7,4.9,20,0.00,,,0.00,meteobridge,2013-11-30 20:00:00,
2013-11-30 12:02:00,84.4,39.0,29.74,South,176,4.9,4.9,20,0.00,,,0.00,meteobridge,2013-11-30 20:02:00,
2013-11-30 12:04:00,84.2,38.8,29.74,SSW,206,4.0,5.4,20,0.00,,,0.00,meteobridge,2013-11-30 20:04:00,
2013-11-30 12:06:00,78.3,37.4,29.74,SSW,192,6.3,7.2,23,0.00,,,0.00,meteobridge,2013-11-30 20:06:00,
2013-11-30 12:08:00,79.3,37.2,29.74,SSW,206,4.0,6.3,22,0.00,,,0.00,meteobridge,2013-11-30 20:08:00,
2013-11-30 12:13:00,78.8,36.7,29.74,WSW,247,3.1,6.3,22,0.00,,,0.00,meteobridge,2013-11-30 20:13:00,
2013-11-30 12:15:00,82.0,38.3,29.71,SW,233,2.7,4.9,21,0.00,,,0.00,meteobridge,2013-11-30 20:15:00,
2013-11-30 12:19:00,80.8,37.2,29.71,WNW,288,0.0,5.4,21,0.00,,,0.00,meteobridge,2013-11-30 20:19:00,
2013-11-30 12:21:00,83.3,38.1,29.71,SSW,202,3.1,4.9,20,0.00,,,0.00,meteobridge,2013-11-30 20:21:00,
2013-11-30 12:23:00,85.5,39.7,29.71,WSW,250,2.7,4.5,20,0.00,,,0.00,meteobridge,2013-11-30 20:23:00,
2013-11-30 12:25:00,82.6,37.4,29.71,SW,225,4.0,4.0,20,0.00,,,0.00,meteobridge,2013-11-30 20:25:00,
2013-11-30 12:27:00,79.9,36.5,29.71,SSW,206,3.6,6.3,21,0.00,,,0.00,meteobridge,2013-11-30 20:27:00,
2013-11-30 12:29:00,80.4,36.9,29.71,West,270,4.0,6.3,21,0.00,,,0.00,meteobridge,2013-11-30 20:29:00,
2013-11-30 12:31:00,82.9,39.0,29.71,West,265,5.8,5.8,21,0.00,,,0.00,meteobridge,2013-11-30 20:31:00,
2013-11-30 12:35:00,85.6,39.9,29.71,WSW,245,5.4,5.4,20,0.00,,,0.00,meteobridge,2013-11-30 20:35:00,
2013-11-30 12:37:00,84.0,39.9,29.71,SSW,204,4.0,6.3,21,0.00,,,0.00,meteobridge,2013-11-30 20:37:00,
2013-11-30 12:39:00,81.3,37.6,29.71,South,191,5.4,6.3,21,0.00,,,0.00,meteobridge,2013-11-30 20:39:00,
2013-11-30 12:44:00,76.8,36.1,29.71,SW,214,6.3,6.3,23,0.00,,,0.00,meteobridge,2013-11-30 20:44:00,
2013-11-30 12:46:00,76.8,38.3,29.71,SW,226,4.0,6.7,25,0.00,,,0.00,meteobridge,2013-11-30 20:46:00,
2013-11-30 12:48:00,77.7,38.1,29.71,SSW,208,3.1,5.8,24,0.00,,,0.00,meteobridge,2013-11-30 20:48:00,
2013-11-30 12:50:00,79.0,37.9,29.71,SSW,197,3.6,5.4,23,0.00,,,0.00,meteobridge,2013-11-30 20:50:00,
2013-11-30 12:52:00,81.9,38.1,29.71,WNW,284,5.4,5.4,21,0.00,,,0.00,meteobridge,2013-11-30 20:52:00,
2013-11-30 12:54:00,82.4,38.5,29.71,WNW,286,2.7,7.2,21,0.00,,,0.00,meteobridge,2013-11-30 20:54:00,
2013-11-30 13:00:00,83.3,39.4,29.71,WNW,293,6.3,6.3,21,0.00,,,0.00,meteobridge,2013-11-30 21:00:00,
2013-11-30 13:02:00,82.0,38.3,29.71,West,275,4.0,6.3,21,0.00,,,0.00,meteobridge,2013-11-30 21:02:00,
2013-11-30 13:04:00,83.8,38.5,29.71,WSW,255,3.6,5.4,20,0.00,,,0.00,meteobridge,2013-11-30 21:04:00,
2013-11-30 13:07:00,84.6,39.0,29.71,NW,323,4.9,5.4,20,0.00,,,0.00,meteobridge,2013-11-30 21:07:00,
2013-11-30 13:09:00,84.4,39.0,29.71,WSW,257,3.6,5.8,20,0.00,,,0.00,meteobridge,2013-11-30 21:09:00,
2013-11-30 13:13:00,84.0,38.7,29.71,SSW,198,5.4,5.4,20,0.00,,,0.00,meteobridge,2013-11-30 21:13:00,
2013-11-30 13:17:00,83.8,38.5,29.71,WNW,298,4.0,5.4,20,0.00,,,0.00,meteobridge,2013-11-30 21:17:00,
2013-11-30 13:21:00,83.7,38.3,29.71,WSW,244,4.9,5.4,20,0.00,,,0.00,meteobridge,2013-11-30 21:21:00,
2013-11-30 13:23:00,81.9,38.1,29.71,WSW,253,5.8,6.3,21,0.00,,,0.00,meteobridge,2013-11-30 21:23:00,
2013-11-30 13:25:00,82.6,37.4,29.71,WSW,256,4.0,4.0,20,0.00,,,0.00,meteobridge,2013-11-30 21:25:00,
2013-11-30 13:27:00,80.1,36.7,29.71,SSW,210,5.4,8.1,21,0.00,,,0.00,meteobridge,2013-11-30 21:27:00,
2013-11-30 13:29:00,78.8,36.7,29.71,SSW,201,4.9,8.7,22,0.00,,,0.00,meteobridge,2013-11-30 21:29:00,
2013-11-30 13:36:00,80.6,37.0,29.71,WNW,296,4.9,6.3,21,0.00,,,0.00,meteobridge,2013-11-30 21:36:00,
2013-11-30 13:38:00,80.2,36.7,29.71,NW,311,3.6,5.4,21,0.00,,,0.00,meteobridge,2013-11-30 21:38:00,
2013-11-30 13:40:00,80.1,36.7,29.71,SSW,205,4.0,5.8,21,0.00,,,0.00,meteobridge,2013-11-30 21:40:00,
2013-11-30 13:42:00,80.4,36.9,29.71,West,279,5.4,5.8,21,0.00,,,0.00,meteobridge,2013-11-30 21:42:00,
2013-11-30 13:44:00,81.9,38.1,29.71,WNW,292,2.7,4.9,21,0.00,,,0.00,meteobridge,2013-11-30 21:44:00,
2013-11-30 13:48:00,80.6,37.0,29.71,SSW,197,5.4,5.8,21,0.00,,,0.00,meteobridge,2013-11-30 21:48:00,
2013-11-30 13:50:00,80.1,36.7,29.71,SSW,202,5.8,6.3,21,0.00,,,0.00,meteobridge,2013-11-30 21:50:00,
2013-11-30 13:52:00,81.3,37.6,29.71,WSW,253,3.6,4.9,21,0.00,,,0.00,meteobridge,2013-11-30 21:52:00,
2013-11-30 13:54:00,81.1,37.6,29.71,SSW,197,3.6,5.4,21,0.00,,,0.00,meteobridge,2013-11-30 21:54:00,
2013-11-30 13:56:00,80.4,36.9,29.71,SW,225,4.9,5.4,21,0.00,,,0.00,meteobridge,2013-11-30 21:56:00,
2013-11-30 13:59:00,78.4,37.6,29.71,SSW,209,3.1,6.3,23,0.00,,,0.00,meteobridge,2013-11-30 21:59:00,
2013-11-30 14:05:00,75.7,36.3,29.68,SW,222,4.9,5.4,24,0.00,,,0.00,meteobridge,2013-11-30 22:05:00,
2013-11-30 14:07:00,75.9,37.6,29.68,SW,221,5.4,5.8,25,0.00,,,0.00,meteobridge,2013-11-30 22:07:00,
2013-11-30 14:11:00,76.6,36.1,29.68,SSW,210,2.7,5.8,23,0.00,,,0.00,meteobridge,2013-11-30 22:11:00,
2013-11-30 14:13:00,78.4,37.6,29.68,WSW,258,3.1,4.5,23,0.00,,,0.00,meteobridge,2013-11-30 22:13:00,
2013-11-30 14:15:00,79.9,37.6,29.68,West,271,2.7,4.0,22,0.00,,,0.00,meteobridge,2013-11-30 22:15:00,
2013-11-30 14:20:00,81.0,37.4,29.68,SW,214,3.6,4.0,21,0.00,,,0.00,meteobridge,2013-11-30 22:20:00,
2013-11-30 14:26:00,81.0,37.4,29.68,SW,229,2.7,4.5,21,0.00,,,0.00,meteobridge,2013-11-30 22:26:00,
2013-11-30 14:28:00,82.0,38.3,29.68,SSW,211,3.1,4.0,21,0.00,,,0.00,meteobridge,2013-11-30 22:28:00,
2013-11-30 14:30:00,83.3,38.1,29.68,WSW,250,2.7,5.8,20,0.00,,,0.00,meteobridge,2013-11-30 22:30:00,
2013-11-30 14:32:00,83.8,38.5,29.68,SW,234,4.0,4.0,20,0.00,,,0.00,meteobridge,2013-11-30 22:32:00,
2013-11-30 14:34:00,81.7,37.9,29.68,SSW,210,5.4,5.4,21,0.00,,,0.00,meteobridge,2013-11-30 22:34:00,
2013-11-30 14:36:00,80.6,37.0,29.68,SSW,208,2.7,5.8,21,0.00,,,0.00,meteobridge,2013-11-30 22:36:00,
2013-11-30 14:38:00,79.7,37.6,29.68,SW,229,3.6,3.6,22,0.00,,,0.00,meteobridge,2013-11-30 22:38:00,
2013-11-30 14:42:00,76.6,37.2,29.68,South,175,4.0,5.8,24,0.00,,,0.00,meteobridge,2013-11-30 22:42:00,
2013-11-30 14:45:00,76.5,37.0,29.68,SSE,157,2.7,5.8,24,0.00,,,0.00,meteobridge,2013-11-30 22:45:00,
2013-11-30 14:49:00,79.9,37.6,29.68,SW,234,3.1,5.4,22,0.00,,,0.00,meteobridge,2013-11-30 22:49:00,
2013-11-30 14:51:00,79.7,37.6,29.68,South,173,2.7,3.1,22,0.00,,,0.00,meteobridge,2013-11-30 22:51:00,
2013-11-30 14:53:00,80.8,38.5,29.68,West,264,0.0,5.4,22,0.00,,,0.00,meteobridge,2013-11-30 22:53:00,
2013-11-30 14:55:00,82.6,38.7,29.68,WNW,283,3.1,3.1,21,0.00,,,0.00,meteobridge,2013-11-30 22:55:00,
2013-11-30 14:57:00,82.6,38.7,29.68,WSW,247,2.2,4.0,21,0.00,,,0.00,meteobridge,2013-11-30 22:57:00,
2013-11-30 14:59:00,81.0,37.4,29.68,WNW,303,0.0,2.7,21,0.00,,,0.00,meteobridge,2013-11-30 22:59:00,
2013-11-30 15:01:00,79.7,37.6,29.68,SW,220,2.7,3.6,22,0.00,,,0.00,meteobridge,2013-11-30 23:01:00,
2013-11-30 15:03:00,81.9,38.1,29.68,WSW,251,0.0,2.7,21,0.00,,,0.00,meteobridge,2013-11-30 23:03:00,
2013-11-30 15:05:00,80.8,38.5,29.68,South,189,2.2,4.0,22,0.00,,,0.00,meteobridge,2013-11-30 23:05:00,
2013-11-30 15:09:00,80.6,37.0,29.68,SSW,203,3.1,3.6,21,0.00,,,0.00,meteobridge,2013-11-30 23:09:00,
2013-11-30 15:12:00,80.6,37.0,29.68,SW,221,0.0,3.6,21,0.00,,,0.00,meteobridge,2013-11-30 23:12:00,
2013-11-30 15:16:00,81.0,37.4,29.68,South,190,3.1,4.0,21,0.00,,,0.00,meteobridge,2013-11-30 23:16:00,
2013-11-30 15:20:00,78.4,36.5,29.68,SSW,205,3.1,4.0,22,0.00,,,0.00,meteobridge,2013-11-30 23:20:00,
2013-11-30 15:22:00,78.8,36.7,29.68,SW,217,3.1,3.6,22,0.00,,,0.00,meteobridge,2013-11-30 23:22:00,
2013-11-30 15:28:00,78.1,37.2,29.68,SSW,201,0.0,4.0,23,0.00,,,0.00,meteobridge,2013-11-30 23:28:00,
2013-11-30 15:33:00,79.2,37.0,29.68,SW,218,0.0,2.2,22,0.00,,,0.00,meteobridge,2013-11-30 23:33:00,
2013-11-30 15:37:00,80.1,37.8,29.68,North,357,3.6,3.6,22,0.00,,,0.00,meteobridge,2013-11-30 23:37:00,
2013-11-30 15:39:00,81.1,37.6,29.68,SSW,212,0.0,0.0,21,0.00,,,0.00,meteobridge,2013-11-30 23:39:00,
2013-11-30 15:41:00,79.3,37.2,29.68,WNW,302,2.7,3.6,22,0.00,,,0.00,meteobridge,2013-11-30 23:41:00,
2013-11-30 15:43:00,79.0,36.9,29.68,WSW,245,3.1,3.1,22,0.00,,,0.00,meteobridge,2013-11-30 23:43:00,
2013-11-30 15:45:00,78.8,37.9,29.68,NNW,332,0.0,4.0,23,0.00,,,0.00,meteobridge,2013-11-30 23:45:00,
2013-11-30 15:47:00,78.3,37.4,29.68,NW,307,3.6,3.6,23,0.00,,,0.00,meteobridge,2013-11-30 23:47:00,
2013-11-30 15:49:00,76.5,37.9,29.68,SW,219,2.7,3.1,25,0.00,,,0.00,meteobridge,2013-11-30 23:49:00,
2013-11-30 15:51:00,75.4,38.1,29.68,WSW,244,0.0,2.7,26,0.00,,,0.00,meteobridge,2013-11-30 23:51:00,
2013-11-30 15:55:00,74.1,40.6,29.68,WSW,243,3.1,3.1,30,0.00,,,0.00,meteobridge,2013-11-30 23:55:00,
2013-11-30 15:58:00,72.9,40.5,29.68,WSW,258,2.7,5.8,31,0.00,,,0.00,meteobridge,2013-11-30 23:58:00,
2013-11-30 15:59:00,72.3,39.9,29.71,SSW,207,2.7,3.6,31,0.00,,,0.00,meteobridge,2013-11-30 23:59:00,
2013-11-30 16:02:00,71.8,40.3,29.71,WNW,297,0.0,3.6,32,0.00,,,0.00,meteobridge,2013-12-01 00:02:00,
2013-11-30 16:04:00,71.6,40.1,29.71,WNW,298,0.0,0.0,32,0.00,,,0.00,meteobridge,2013-12-01 00:04:00,
2013-11-30 16:06:00,71.2,41.4,29.71,NW,319,0.0,5.4,34,0.00,,,0.00,meteobridge,2013-12-01 00:06:00,
2013-11-30 16:08:00,71.8,41.9,29.71,WNW,299,2.7,3.1,34,0.00,,,0.00,meteobridge,2013-12-01 00:08:00,
2013-11-30 16:12:00,71.8,41.9,29.71,WNW,294,0.0,3.1,34,0.00,,,0.00,meteobridge,2013-12-01 00:12:00,
2013-11-30 16:14:00,71.8,41.9,29.71,WSW,239,2.7,3.6,34,0.00,,,0.00,meteobridge,2013-12-01 00:14:00,
2013-11-30 16:16:00,72.0,42.1,29.71,SW,215,0.0,3.1,34,0.00,,,0.00,meteobridge,2013-12-01 00:16:00,
2013-11-30 16:19:00,72.3,41.5,29.71,WNW,299,4.0,4.0,33,0.00,,,0.00,meteobridge,2013-12-01 00:19:00,
2013-11-30 16:21:00,71.8,41.2,29.71,NW,313,0.0,4.0,33,0.00,,,0.00,meteobridge,2013-12-01 00:21:00,
2013-11-30 16:27:00,69.4,44.1,29.71,NW,319,2.2,4.0,40,0.00,,,0.00,meteobridge,2013-12-01 00:27:00,
2013-11-30 16:29:00,68.7,45.3,29.71,West,278,2.7,4.0,43,0.00,,,0.00,meteobridge,2013-12-01 00:29:00,
2013-11-30 16:31:00,68.5,45.1,29.71,WNW,287,3.6,4.0,43,0.00,,,0.00,meteobridge,2013-12-01 00:31:00,
2013-11-30 16:33:00,68.2,45.5,29.71,WNW,299,2.7,4.5,44,0.00,,,0.00,meteobridge,2013-12-01 00:33:00,
2013-11-30 16:37:00,67.8,46.2,29.71,NW,323,4.9,4.9,46,0.00,,,0.00,meteobridge,2013-12-01 00:37:00,
2013-11-30 16:41:00,67.3,46.4,29.71,NW,324,3.6,4.0,47,0.00,,,0.00,meteobridge,2013-12-01 00:41:00,
2013-11-30 16:44:00,67.3,46.9,29.71,WNW,300,3.6,4.0,48,0.00,,,0.00,meteobridge,2013-12-01 00:44:00,
2013-11-30 16:46:00,67.1,46.8,29.71,NW,310,2.7,3.6,48,0.00,,,0.00,meteobridge,2013-12-01 00:46:00,
2013-11-30 16:50:00,67.1,47.3,29.71,NW,325,2.7,3.1,49,0.00,,,0.00,meteobridge,2013-12-01 00:50:00,
2013-11-30 16:52:00,67.1,47.3,29.71,NNW,330,3.1,4.0,49,0.00,,,0.00,meteobridge,2013-12-01 00:52:00,
2013-11-30 16:58:00,66.7,47.5,29.71,NW,320,0.0,3.6,50,0.00,,,0.00,meteobridge,2013-12-01 00:58:00,
2013-11-30 17:00:00,66.7,47.5,29.71,NNW,336,3.1,4.0,50,0.00,,,0.00,meteobridge,2013-12-01 01:00:00,
2013-11-30 17:02:00,66.6,47.8,29.71,WNW,291,4.0,4.0,51,0.00,,,0.00,meteobridge,2013-12-01 01:02:00,
2013-11-30 17:04:00,66.4,47.7,29.71,West,277,0.0,3.1,51,0.00,,,0.00,meteobridge,2013-12-01 01:04:00,
2013-11-30 17:06:00,66.4,47.7,29.71,NNW,331,2.2,4.0,51,0.00,,,0.00,meteobridge,2013-12-01 01:06:00,
2013-11-30 17:13:00,66.2,48.0,29.71,North,357,0.0,0.0,52,0.00,,,0.00,meteobridge,2013-12-01 01:13:00,
2013-11-30 17:15:00,66.0,48.4,29.71,NW,317,0.0,0.0,53,0.00,,,0.00,meteobridge,2013-12-01 01:15:00,
2013-11-30 17:17:00,66.2,48.6,29.71,NW,322,2.2,4.9,53,0.00,,,0.00,meteobridge,2013-12-01 01:17:00,
2013-11-30 17:19:00,66.2,48.6,29.71,NNW,341,0.0,0.0,53,0.00,,,0.00,meteobridge,2013-12-01 01:19:00,
2013-11-30 17:21:00,66.0,48.9,29.71,NNW,331,0.0,0.0,54,0.00,,,0.00,meteobridge,2013-12-01 01:21:00,
2013-11-30 17:23:00,66.0,48.9,29.71,NNW,331,0.0,0.0,54,0.00,,,0.00,meteobridge,2013-12-01 01:23:00,
2013-11-30 17:25:00,65.8,48.7,29.71,WNW,293,2.2,2.2,54,0.00,,,0.00,meteobridge,2013-12-01 01:25:00,
2013-11-30 17:27:00,65.8,49.3,29.71,WNW,283,2.2,3.6,55,0.00,,,0.00,meteobridge,2013-12-01 01:27:00,
2013-11-30 17:29:00,65.7,48.6,29.71,WNW,303,0.0,2.7,54,0.00,,,0.00,meteobridge,2013-12-01 01:29:00,
2013-11-30 17:31:00,65.5,48.4,29.71,WSW,254,0.0,2.2,54,0.00,,,0.00,meteobridge,2013-12-01 01:31:00,
2013-11-30 17:33:00,65.3,48.7,29.71,WSW,254,0.0,0.0,55,0.00,,,0.00,meteobridge,2013-12-01 01:33:00,
2013-11-30 17:38:00,65.1,48.6,29.71,WSW,254,0.0,0.0,55,0.00,,,0.00,meteobridge,2013-12-01 01:38:00,
2013-11-30 17:40:00,64.9,48.4,29.71,WSW,254,0.0,0.0,55,0.00,,,0.00,meteobridge,2013-12-01 01:40:00,
2013-11-30 17:42:00,64.8,47.7,29.71,WSW,254,0.0,0.0,54,0.00,,,0.00,meteobridge,2013-12-01 01:42:00,
2013-11-30 17:44:00,64.6,47.5,29.71,WSW,254,0.0,0.0,54,0.00,,,0.00,meteobridge,2013-12-01 01:44:00,
2013-11-30 17:46:00,64.4,47.8,29.71,WSW,254,0.0,0.0,55,0.00,,,0.00,meteobridge,2013-12-01 01:46:00,
2013-11-30 17:48:00,64.4,48.4,29.71,WSW,254,0.0,0.0,56,0.00,,,0.00,meteobridge,2013-12-01 01:48:00,
2013-11-30 17:50:00,64.4,48.4,29.71,NNW,334,0.0,0.0,56,0.00,,,0.00,meteobridge,2013-12-01 01:50:00,
2013-11-30 17:52:00,64.4,48.4,29.71,NNW,334,0.0,0.0,56,0.00,,,0.00,meteobridge,2013-12-01 01:52:00,
2013-11-30 17:54:00,64.4,48.4,29.71,NNW,334,0.0,0.0,56,0.00,,,0.00,meteobridge,2013-12-01 01:54:00,
2013-11-30 17:56:00,64.4,48.4,29.71,NNW,348,0.0,0.0,56,0.00,,,0.00,meteobridge,2013-12-01 01:56:00,
2013-11-30 17:58:00,64.6,48.9,29.71,NNW,348,0.0,0.0,57,0.00,,,0.00,meteobridge,2013-12-01 01:58:00,
2013-11-30 18:01:00,64.4,48.9,29.71,NNW,348,0.0,0.0,57,0.00,,,0.00,meteobridge,2013-12-01 02:01:00,
2013-11-30 18:03:00,64.2,48.7,29.71,NNW,348,0.0,0.0,57,0.00,,,0.00,meteobridge,2013-12-01 02:03:00,
2013-11-30 18:07:00,64.2,48.7,29.71,NNW,348,0.0,0.0,57,0.00,,,0.00,meteobridge,2013-12-01 02:07:00,
2013-11-30 18:09:00,64.2,48.2,29.71,NNW,348,0.0,0.0,56,0.00,,,0.00,meteobridge,2013-12-01 02:09:00,
2013-11-30 18:11:00,64.2,48.2,29.71,NNW,348,0.0,0.0,56,0.00,,,0.00,meteobridge,2013-12-01 02:11:00,
2013-11-30 18:13:00,64.2,48.7,29.71,NNW,348,0.0,0.0,57,0.00,,,0.00,meteobridge,2013-12-01 02:13:00,
2013-11-30 18:15:00,64.2,48.2,29.74,NNW,348,0.0,0.0,56,0.00,,,0.00,meteobridge,2013-12-01 02:15:00,
2013-11-30 18:17:00,64.2,48.2,29.74,NNW,348,0.0,0.0,56,0.00,,,0.00,meteobridge,2013-12-01 02:17:00,
2013-11-30 18:19:00,64.0,48.0,29.74,NNW,348,0.0,0.0,56,0.00,,,0.00,meteobridge,2013-12-01 02:19:00,
2013-11-30 18:24:00,64.0,48.0,29.74,NNW,348,0.0,0.0,56,0.00,,,0.00,meteobridge,2013-12-01 02:24:00,
2013-11-30 18:26:00,63.9,48.4,29.74,NNW,348,0.0,0.0,57,0.00,,,0.00,meteobridge,2013-12-01 02:26:00,
2013-11-30 18:28:00,63.7,48.2,29.74,NNW,348,0.0,0.0,57,0.00,,,0.00,meteobridge,2013-12-01 02:28:00,
2013-11-30 18:32:00,63.3,47.8,29.74,NNW,348,0.0,0.0,57,0.00,,,0.00,meteobridge,2013-12-01 02:32:00,
2013-11-30 18:34:00,63.1,47.7,29.74,NNW,348,0.0,0.0,57,0.00,,,0.00,meteobridge,2013-12-01 02:34:00,
2013-11-30 18:38:00,63.1,47.7,29.74,NNE,19,0.0,0.0,57,0.00,,,0.00,meteobridge,2013-12-01 02:38:00,
2013-11-30 18:40:00,63.1,47.7,29.74,NNE,28,0.0,0.0,57,0.00,,,0.00,meteobridge,2013-12-01 02:40:00,
2013-11-30 18:42:00,63.3,47.8,29.74,NNE,28,0.0,0.0,57,0.00,,,0.00,meteobridge,2013-12-01 02:42:00,
2013-11-30 18:45:00,63.3,47.8,29.74,NNE,28,0.0,0.0,57,0.00,,,0.00,meteobridge,2013-12-01 02:45:00,
2013-11-30 18:47:00,63.1,48.2,29.74,NNE,28,0.0,0.0,58,0.00,,,0.00,meteobridge,2013-12-01 02:47:00,
2013-11-30 18:51:00,63.1,48.6,29.74,NNE,28,0.0,0.0,59,0.00,,,0.00,meteobridge,2013-12-01 02:51:00,
2013-11-30 18:53:00,63.1,48.2,29.74,NNE,28,0.0,0.0,58,0.00,,,0.00,meteobridge,2013-12-01 02:53:00,
2013-11-30 18:55:00,63.3,48.7,29.74,North,357,0.0,0.0,59,0.00,,,0.00,meteobridge,2013-12-01 02:55:00,
2013-11-30 18:57:00,63.1,48.2,29.74,North,357,0.0,0.0,58,0.00,,,0.00,meteobridge,2013-12-01 02:57:00,
2013-11-30 18:59:00,63.1,48.2,29.74,North,357,0.0,0.0,58,0.00,,,0.00,meteobridge,2013-12-01 02:59:00,
2013-11-30 19:04:00,63.1,47.1,29.74,North,357,0.0,0.0,56,0.00,,,0.00,meteobridge,2013-12-01 03:04:00,
2013-11-30 19:06:00,63.1,46.8,29.74,North,357,0.0,0.0,55,0.00,,,0.00,meteobridge,2013-12-01 03:06:00,
2013-11-30 19:08:00,63.1,46.8,29.74,North,357,0.0,0.0,55,0.00,,,0.00,meteobridge,2013-12-01 03:08:00,
2013-11-30 19:10:00,63.1,46.2,29.74,North,357,0.0,0.0,54,0.00,,,0.00,meteobridge,2013-12-01 03:10:00,
2013-11-30 19:12:00,63.1,46.2,29.74,North,357,0.0,0.0,54,0.00,,,0.00,meteobridge,2013-12-01 03:12:00,
2013-11-30 19:14:00,63.1,46.2,29.74,North,357,0.0,0.0,54,0.00,,,0.00,meteobridge,2013-12-01 03:14:00,
2013-11-30 19:16:00,63.0,46.6,29.74,North,357,0.0,0.0,55,0.00,,,0.00,meteobridge,2013-12-01 03:16:00,
2013-11-30 19:18:00,63.0,46.0,29.74,North,357,0.0,0.0,54,0.00,,,0.00,meteobridge,2013-12-01 03:18:00,
2013-11-30 19:22:00,63.0,46.6,29.74,North,357,0.0,0.0,55,0.00,,,0.00,meteobridge,2013-12-01 03:22:00,
2013-11-30 19:29:00,62.6,45.1,29.74,North,357,0.0,0.0,53,0.00,,,0.00,meteobridge,2013-12-01 03:29:00,
2013-11-30 19:31:00,62.6,45.1,29.74,North,357,0.0,0.0,53,0.00,,,0.00,meteobridge,2013-12-01 03:31:00,
2013-11-30 19:35:00,62.6,44.8,29.74,North,357,0.0,0.0,52,0.00,,,0.00,meteobridge,2013-12-01 03:35:00,
2013-11-30 19:37:00,62.4,44.6,29.74,North,357,0.0,0.0,52,0.00,,,0.00,meteobridge,2013-12-01 03:37:00,
2013-11-30 19:39:00,62.4,44.6,29.74,North,357,0.0,0.0,52,0.00,,,0.00,meteobridge,2013-12-01 03:39:00,
2013-11-30 19:41:00,62.4,44.6,29.74,North,357,0.0,0.0,52,0.00,,,0.00,meteobridge,2013-12-01 03:41:00,
2013-11-30 19:43:00,62.2,43.9,29.74,North,357,0.0,0.0,51,0.00,,,0.00,meteobridge,2013-12-01 03:43:00,
2013-11-30 19:46:00,62.2,43.9,29.74,North,357,0.0,0.0,51,0.00,,,0.00,meteobridge,2013-12-01 03:46:00,
2013-11-30 19:48:00,62.1,43.2,29.74,North,357,0.0,0.0,50,0.00,,,0.00,meteobridge,2013-12-01 03:48:00,
2013-11-30 19:52:00,61.9,43.5,29.74,North,357,0.0,0.0,51,0.00,,,0.00,meteobridge,2013-12-01 03:52:00,
2013-11-30 19:54:00,61.9,43.5,29.74,North,357,0.0,0.0,51,0.00,,,0.00,meteobridge,2013-12-01 03:54:00,
2013-11-30 19:56:00,61.7,43.3,29.74,North,357,0.0,0.0,51,0.00,,,0.00,meteobridge,2013-12-01 03:56:00,
2013-11-30 19:58:00,61.5,43.2,29.74,NNE,33,0.0,0.0,51,0.00,,,0.00,meteobridge,2013-12-01 03:58:00,
2013-11-30 20:02:00,61.9,44.1,29.74,East,93,0.0,0.0,52,0.00,,,0.00,meteobridge,2013-12-01 04:02:00,
2013-11-30 20:04:00,62.2,44.4,29.74,ESE,109,0.0,0.0,52,0.00,,,0.00,meteobridge,2013-12-01 04:04:00,
2013-11-30 20:06:00,62.4,45.5,29.74,ESE,109,0.0,0.0,54,0.00,,,0.00,meteobridge,2013-12-01 04:06:00,
2013-11-30 20:10:00,61.9,44.6,29.74,ESE,109,0.0,0.0,53,0.00,,,0.00,meteobridge,2013-12-01 04:10:00,
2013-11-30 20:14:00,61.9,44.6,29.74,ESE,109,0.0,0.0,53,0.00,,,0.00,meteobridge,2013-12-01 04:14:00,
2013-11-30 20:16:00,61.7,44.4,29.74,ESE,109,0.0,0.0,53,0.00,,,0.00,meteobridge,2013-12-01 04:16:00,
2013-11-30 20:21:00,61.5,44.2,29.74,ESE,109,0.0,0.0,53,0.00,,,0.00,meteobridge,2013-12-01 04:21:00,
2013-11-30 20:23:00,61.7,45.0,29.74,ESE,109,0.0,0.0,54,0.00,,,0.00,meteobridge,2013-12-01 04:23:00,
2013-11-30 20:25:00,61.7,44.4,29.74,East,100,0.0,0.0,53,0.00,,,0.00,meteobridge,2013-12-01 04:25:00,
2013-11-30 20:27:00,61.7,44.4,29.74,East,100,0.0,0.0,53,0.00,,,0.00,meteobridge,2013-12-01 04:27:00,
2013-11-30 20:33:00,61.5,43.7,29.74,NE,55,0.0,0.0,52,0.00,,,0.00,meteobridge,2013-12-01 04:33:00,
2013-11-30 20:35:00,61.3,43.5,29.74,NE,55,0.0,0.0,52,0.00,,,0.00,meteobridge,2013-12-01 04:35:00,
2013-11-30 20:37:00,61.2,43.3,29.74,NE,55,0.0,0.0,52,0.00,,,0.00,meteobridge,2013-12-01 04:37:00,
2013-11-30 20:40:00,61.2,43.9,29.74,NE,55,0.0,0.0,53,0.00,,,0.00,meteobridge,2013-12-01 04:40:00,
2013-11-30 20:44:00,61.3,44.1,29.74,NE,55,0.0,0.0,53,0.00,,,0.00,meteobridge,2013-12-01 04:44:00,
2013-11-30 20:46:00,61.2,43.3,29.74,NE,55,0.0,0.0,52,0.00,,,0.00,meteobridge,2013-12-01 04:46:00,
2013-11-30 20:50:00,61.3,44.1,29.74,NE,55,0.0,0.0,53,0.00,,,0.00,meteobridge,2013-12-01 04:50:00,
2013-11-30 20:52:00,61.3,44.1,29.74,NE,55,0.0,0.0,53,0.00,,,0.00,meteobridge,2013-12-01 04:52:00,
2013-11-30 20:56:00,61.5,44.8,29.74,NNW,348,0.0,0.0,54,0.00,,,0.00,meteobridge,2013-12-01 04:56:00,
2013-11-30 21:03:00,61.9,44.6,29.74,North,0,0.0,0.0,53,0.00,,,0.00,meteobridge,2013-12-01 05:03:00,
2013-11-30 21:09:00,61.7,43.9,29.74,NNW,345,0.0,0.0,52,0.00,,,0.00,meteobridge,2013-12-01 05:09:00,
2013-11-30 21:11:00,62.2,44.4,29.74,NNW,338,0.0,0.0,52,0.00,,,0.00,meteobridge,2013-12-01 05:11:00,
2013-11-30 21:17:00,62.6,42.6,29.74,North,350,0.0,0.0,48,0.00,,,0.00,meteobridge,2013-12-01 05:17:00,
2013-11-30 21:19:00,62.8,41.7,29.74,NNW,345,0.0,0.0,46,0.00,,,0.00,meteobridge,2013-12-01 05:19:00,
2013-11-30 21:21:00,62.8,41.7,29.74,NNW,342,0.0,0.0,46,0.00,,,0.00,meteobridge,2013-12-01 05:21:00,
2013-11-30 21:24:00,62.6,41.5,29.74,NNW,342,0.0,0.0,46,0.00,,,0.00,meteobridge,2013-12-01 05:24:00,
2013-11-30 21:30:00,62.6,41.5,29.74,NNW,335,0.0,0.0,46,0.00,,,0.00,meteobridge,2013-12-01 05:30:00,
2013-11-30 21:34:00,62.4,41.4,29.74,NNW,335,0.0,0.0,46,0.00,,,0.00,meteobridge,2013-12-01 05:34:00,
2013-11-30 21:38:00,62.1,40.5,29.74,NNW,339,0.0,0.0,45,0.00,,,0.00,meteobridge,2013-12-01 05:38:00,
2013-11-30 21:40:00,61.9,40.8,29.74,NNW,339,0.0,0.0,46,0.00,,,0.00,meteobridge,2013-12-01 05:40:00,
2013-11-30 21:42:00,62.1,41.0,29.74,NNW,339,0.0,0.0,46,0.00,,,0.00,meteobridge,2013-12-01 05:42:00,
2013-11-30 21:45:00,61.9,41.4,29.74,NNW,339,0.0,0.0,47,0.00,,,0.00,meteobridge,2013-12-01 05:45:00,
2013-11-30 21:51:00,62.4,43.0,29.74,SSW,202,0.0,0.0,49,0.00,,,0.00,meteobridge,2013-12-01 05:51:00,
2013-11-30 21:53:00,62.2,42.8,29.74,South,186,0.0,0.0,49,0.00,,,0.00,meteobridge,2013-12-01 05:53:00,
2013-11-30 21:55:00,62.4,43.5,29.74,South,169,0.0,0.0,50,0.00,,,0.00,meteobridge,2013-12-01 05:55:00,
2013-11-30 21:59:00,61.7,42.3,29.74,South,169,0.0,0.0,49,0.00,,,0.00,meteobridge,2013-12-01 05:59:00,
2013-11-30 22:01:00,61.5,42.3,29.77,South,169,0.0,0.0,49,0.00,,,0.00,meteobridge,2013-12-01 06:01:00,
2013-11-30 22:03:00,61.3,42.1,29.77,South,169,0.0,0.0,49,0.00,,,0.00,meteobridge,2013-12-01 06:03:00,
2013-11-30 22:06:00,61.2,41.9,29.77,South,169,0.0,0.0,49,0.00,,,0.00,meteobridge,2013-12-01 06:06:00,
2013-11-30 22:08:00,61.2,41.9,29.77,South,169,0.0,0.0,49,0.00,,,0.00,meteobridge,2013-12-01 06:08:00,
2013-11-30 22:10:00,61.0,42.3,29.77,South,169,0.0,0.0,50,0.00,,,0.00,meteobridge,2013-12-01 06:10:00,
2013-11-30 22:12:00,61.0,42.3,29.77,South,169,0.0,0.0,50,0.00,,,0.00,meteobridge,2013-12-01 06:12:00,
2013-11-30 22:18:00,61.2,43.0,29.77,South,169,0.0,0.0,51,0.00,,,0.00,meteobridge,2013-12-01 06:18:00,
2013-11-30 22:20:00,61.2,42.4,29.77,South,169,0.0,0.0,50,0.00,,,0.00,meteobridge,2013-12-01 06:20:00,
2013-11-30 22:22:00,61.2,42.4,29.77,South,169,0.0,0.0,50,0.00,,,0.00,meteobridge,2013-12-01 06:22:00,
2013-11-30 22:24:00,61.3,43.0,29.77,South,169,0.0,0.0,51,0.00,,,0.00,meteobridge,2013-12-01 06:24:00,
2013-11-30 22:26:00,61.3,43.0,29.77,South,169,0.0,0.0,51,0.00,,,0.00,meteobridge,2013-12-01 06:26:00,
2013-11-30 22:28:00,61.2,43.0,29.77,South,169,0.0,0.0,51,0.00,,,0.00,meteobridge,2013-12-01 06:28:00,
2013-11-30 22:30:00,61.2,43.0,29.77,South,169,0.0,0.0,51,0.00,,,0.00,meteobridge,2013-12-01 06:30:00,
2013-11-30 22:33:00,61.0,42.3,29.77,ENE,70,0.0,0.0,50,0.00,,,0.00,meteobridge,2013-12-01 06:33:00,
2013-11-30 22:35:00,60.6,41.9,29.77,ENE,70,0.0,0.0,50,0.00,,,0.00,meteobridge,2013-12-01 06:35:00,
2013-11-30 22:37:00,60.6,41.9,29.77,ENE,70,0.0,0.0,50,0.00,,,0.00,meteobridge,2013-12-01 06:37:00,
2013-11-30 22:39:00,60.4,41.7,29.77,ENE,70,0.0,0.0,50,0.00,,,0.00,meteobridge,2013-12-01 06:39:00,
2013-11-30 22:43:00,60.8,43.0,29.77,ENE,70,0.0,0.0,52,0.00,,,0.00,meteobridge,2013-12-01 06:43:00,
2013-11-30 22:45:00,61.0,43.2,29.77,ENE,70,0.0,0.0,52,0.00,,,0.00,meteobridge,2013-12-01 06:45:00,
2013-11-30 22:47:00,60.8,43.0,29.77,ENE,70,0.0,0.0,52,0.00,,,0.00,meteobridge,2013-12-01 06:47:00,
2013-11-30 22:49:00,60.6,43.0,29.77,ENE,70,0.0,0.0,52,0.00,,,0.00,meteobridge,2013-12-01 06:49:00,
2013-11-30 22:56:00,60.4,43.2,29.77,ENE,70,0.0,0.0,53,0.00,,,0.00,meteobridge,2013-12-01 06:56:00,
2013-11-30 22:58:00,60.4,43.2,29.77,ENE,70,0.0,0.0,53,0.00,,,0.00,meteobridge,2013-12-01 06:58:00,
2013-11-30 23:02:00,60.4,43.2,29.77,ENE,70,0.0,0.0,53,0.00,,,0.00,meteobridge,2013-12-01 07:02:00,
2013-11-30 23:04:00,60.3,43.0,29.77,ENE,70,0.0,0.0,53,0.00,,,0.00,meteobridge,2013-12-01 07:04:00,
2013-11-30 23:08:00,60.4,43.2,29.77,ENE,70,0.0,0.0,53,0.00,,,0.00,meteobridge,2013-12-01 07:08:00,
2013-11-30 23:10:00,60.4,43.7,29.77,ENE,70,0.0,0.0,54,0.00,,,0.00,meteobridge,2013-12-01 07:10:00,
2013-11-30 23:14:00,60.8,44.6,29.77,East,98,0.0,0.0,55,0.00,,,0.00,meteobridge,2013-12-01 07:14:00,
2013-11-30 23:16:00,60.8,45.0,29.77,East,100,0.0,0.0,56,0.00,,,0.00,meteobridge,2013-12-01 07:16:00,
2013-11-30 23:18:00,61.2,45.3,29.77,East,100,0.0,0.0,56,0.00,,,0.00,meteobridge,2013-12-01 07:18:00,
2013-11-30 23:20:00,61.3,45.5,29.77,East,100,0.0,0.0,56,0.00,,,0.00,meteobridge,2013-12-01 07:20:00,
2013-11-30 23:25:00,60.8,45.0,29.77,East,100,0.0,0.0,56,0.00,,,0.00,meteobridge,2013-12-01 07:25:00,
2013-11-30 23:27:00,61.0,46.0,29.77,East,100,0.0,0.0,58,0.00,,,0.00,meteobridge,2013-12-01 07:27:00,
2013-11-30 23:29:00,61.5,48.7,29.77,North,357,0.0,0.0,63,0.00,,,0.00,meteobridge,2013-12-01 07:29:00,
2013-11-30 23:31:00,61.3,49.1,29.77,North,353,0.0,0.0,64,0.00,,,0.00,meteobridge,2013-12-01 07:31:00,
2013-11-30 23:33:00,61.3,49.5,29.77,North,353,0.0,0.0,65,0.00,,,0.00,meteobridge,2013-12-01 07:33:00,
2013-11-30 23:35:00,61.2,49.3,29.77,North,353,0.0,0.0,65,0.00,,,0.00,meteobridge,2013-12-01 07:35:00,
2013-11-30 23:37:00,61.0,48.7,29.77,North,353,0.0,0.0,64,0.00,,,0.00,meteobridge,2013-12-01 07:37:00,
2013-11-30 23:39:00,60.8,48.2,29.77,North,353,0.0,0.0,63,0.00,,,0.00,meteobridge,2013-12-01 07:39:00,
2013-11-30 23:43:00,60.4,47.3,29.77,North,353,0.0,0.0,62,0.00,,,0.00,meteobridge,2013-12-01 07:43:00,
2013-11-30 23:45:00,60.4,47.3,29.77,North,353,0.0,0.0,62,0.00,,,0.00,meteobridge,2013-12-01 07:45:00,
2013-11-30 23:47:00,60.3,47.1,29.77,ENE,60,0.0,0.0,62,0.00,,,0.00,meteobridge,2013-12-01 07:47:00,
2013-11-30 23:49:00,60.3,47.1,29.77,ENE,60,0.0,0.0,62,0.00,,,0.00,meteobridge,2013-12-01 07:49:00,
2013-11-30 23:54:00,60.4,47.8,29.77,ENE,60,0.0,0.0,63,0.00,,,0.00,meteobridge,2013-12-01 07:54:00,
2013-11-30 23:56:00,60.6,48.4,29.77,ENE,60,0.0,0.0,64,0.00,,,0.00,meteobridge,2013-12-01 07:56:00,